Previsão horária em Pliszki

Hoje, 7 Março, Domingo

Tempo Temperatura Precipitação Vento Pressão Humidade
00:00 -4°C° 0 mm 6 m/s 750 mmHg 65%
01:00 -4°C° 0 mm 7 m/s 750 mmHg 69%
02:00 -4°C° 0 mm 7 m/s 750 mmHg 72%
03:00 -4°C° 0 mm 8 m/s 749 mmHg 78%
04:00 -4°C° 0 mm 8 m/s 748 mmHg 83%
05:00 -4°C° 0 mm 9 m/s 747 mmHg 88%
06:00 -4°C° 0.2 mm 9 m/s 747 mmHg 87%
07:00 -4°C° 0.2 mm 10 m/s 747 mmHg 86%
08:00 -4°C° 0.2 mm 10 m/s 746 mmHg 86%
09:00 -3°C° 0 mm 10 m/s 746 mmHg 79%
10:00 -3°C° 0 mm 10 m/s 746 mmHg 73%
11:00 -2°C° 0 mm 10 m/s 745 mmHg 67%
12:00 -2°C° 0 mm 10 m/s 745 mmHg 68%
13:00 -2°C° 0 mm 10 m/s 745 mmHg 69%
14:00 -2°C° 0 mm 10 m/s 745 mmHg 70%
15:00 -3°C° 0 mm 9 m/s 744 mmHg 73%
16:00 -3°C° 0 mm 9 m/s 744 mmHg 76%
17:00 -3°C° 0 mm 9 m/s 744 mmHg 78%
18:00 -2°C° 0 mm 8 m/s 744 mmHg 80%
19:00 -4°C° 0 mm 8 m/s 744 mmHg 81%
20:00 -4°C° 0 mm 8 m/s 744 mmHg 83%
21:00 -3°C° 0.3 mm 7 m/s 744 mmHg 84%
22:00 -4°C° 0.3 mm 6 m/s 744 mmHg 85%
23:00 -4°C° 0.3 mm 5 m/s 744 mmHg 87%

Amanhã, 8 Março, Segunda-feira

Tempo Temperatura Precipitação Vento Pressão Humidade
00:00 -5°C° 0 mm 5 m/s 744 mmHg 84%
01:00 -4°C° 0 mm 4 m/s 744 mmHg 81%
02:00 -5°C° 0 mm 3 m/s 744 mmHg 78%
03:00 -5°C° 0 mm 3 m/s 744 mmHg 78%
04:00 -5°C° 0 mm 4 m/s 744 mmHg 78%
05:00 -7°C° 0 mm 4 m/s 744 mmHg 79%
06:00 -7°C° 0 mm 4 m/s 745 mmHg 78%
07:00 -6°C° 0 mm 5 m/s 745 mmHg 77%
08:00 -6°C° 0 mm 5 m/s 746 mmHg 76%
09:00 -5°C° 0 mm 5 m/s 746 mmHg 71%
10:00 -4°C° 0 mm 6 m/s 746 mmHg 66%
11:00 -3°C° 0 mm 6 m/s 746 mmHg 61%
12:00 -3°C° 0.1 mm 6 m/s 747 mmHg 60%
13:00 -2°C° 0.1 mm 6 m/s 747 mmHg 58%
14:00 -2°C° 0.1 mm 7 m/s 747 mmHg 57%
15:00 -2°C° 0 mm 6 m/s 747 mmHg 58%
16:00 -2°C° 0 mm 6 m/s 747 mmHg 59%
17:00 -3°C° 0 mm 6 m/s 747 mmHg 59%
18:00 -4°C° 0 mm 5 m/s 748 mmHg 64%
19:00 -4°C° 0 mm 4 m/s 748 mmHg 68%
20:00 -4°C° 0 mm 3 m/s 748 mmHg 72%
21:00 -5°C° 0 mm 3 m/s 749 mmHg 73%
22:00 -5°C° 0 mm 3 m/s 749 mmHg 74%
23:00 -5°C° 0 mm 3 m/s 749 mmHg 75%

Depois de amanhã, 9 Março, Terça-feira

Tempo Temperatura Precipitação Vento Pressão Humidade
00:00 -6°C° 0 mm 3 m/s 749 mmHg 76%
01:00 -6°C° 0 mm 3 m/s 750 mmHg 77%
02:00 -6°C° 0 mm 3 m/s 750 mmHg 77%
03:00 -6°C° 0 mm 3 m/s 750 mmHg 77%
04:00 -6°C° 0 mm 3 m/s 750 mmHg 77%
05:00 -6°C° 0 mm 3 m/s 750 mmHg 77%
06:00 -6°C° 0 mm 3 m/s 750 mmHg 75%
07:00 -6°C° 0 mm 3 m/s 750 mmHg 73%
08:00 -6°C° 0 mm 3 m/s 751 mmHg 71%
09:00 -5°C° 0 mm 3 m/s 751 mmHg 63%
10:00 -5°C° 0 mm 3 m/s 751 mmHg 55%
11:00 -4°C° 0 mm 3 m/s 751 mmHg 46%
12:00 -3°C° 0 mm 2 m/s 752 mmHg 42%
13:00 -2°C° 0 mm 2 m/s 752 mmHg 38%
14:00 -2°C° 0 mm 2 m/s 752 mmHg 34%
15:00 -2°C° 0 mm 2 m/s 751 mmHg 33%
16:00 0°C° 0 mm 1 m/s 751 mmHg 33%
17:00 0°C° 0 mm 1 m/s 751 mmHg 33%
18:00 -1°C° 0 mm 1 m/s 751 mmHg 37%
19:00 -1°C° 0 mm 1 m/s 751 mmHg 40%
20:00 -2°C° 0 mm 1 m/s 752 mmHg 44%
21:00 -2°C° 0 mm 1 m/s 752 mmHg 44%
22:00 -2°C° 0 mm 1 m/s 752 mmHg 44%
23:00 -2°C° 0 mm 1 m/s 752 mmHg 44%

10 Março, Quarta-feira

Tempo Temperatura Precipitação Vento Pressão Humidade
00:00 -3°C° 0 mm 1 m/s 752 mmHg 45%
01:00 -3°C° 0 mm 1 m/s 752 mmHg 45%
02:00 -3°C° 0 mm 1 m/s 752 mmHg 45%
03:00 -3°C° 0 mm 1 m/s 751 mmHg 46%
04:00 -3°C° 0 mm 1 m/s 751 mmHg 46%
05:00 -3°C° 0 mm 1 m/s 751 mmHg 47%
06:00 -3°C° 0 mm 1 m/s 751 mmHg 46%
07:00 -3°C° 0 mm 1 m/s 752 mmHg 46%
08:00 -3°C° 0 mm 1 m/s 752 mmHg 45%
09:00 -4°C° 0 mm 2 m/s 752 mmHg 41%
10:00 -3°C° 0 mm 2 m/s 752 mmHg 37%
11:00 -1°C° 0 mm 2 m/s 752 mmHg 33%
12:00 -1°C° 0 mm 2 m/s 752 mmHg 31%
13:00 0°C° 0 mm 3 m/s 752 mmHg 29%
14:00 +1°C° 0 mm 3 m/s 752 mmHg 28%
15:00 +1°C° 0 mm 3 m/s 751 mmHg 29%
16:00 0°C° 0 mm 3 m/s 751 mmHg 31%
17:00 0°C° 0 mm 3 m/s 751 mmHg 33%
18:00 -1°C° 0 mm 3 m/s 751 mmHg 37%
19:00 -2°C° 0 mm 3 m/s 751 mmHg 41%
20:00 -4°C° 0 mm 3 m/s 751 mmHg 44%
21:00 -4°C° 0 mm 3 m/s 751 mmHg 45%
22:00 -4°C° 0 mm 3 m/s 751 mmHg 46%
23:00 -4°C° 0 mm 3 m/s 750 mmHg 47%

11 Março, Quinta-feira

Tempo Temperatura Precipitação Vento Pressão Humidade
00:00 -4°C° 0 mm 4 m/s 750 mmHg 48%
01:00 -4°C° 0 mm 4 m/s 749 mmHg 49%
02:00 -5°C° 0 mm 5 m/s 749 mmHg 50%
03:00 -5°C° 0 mm 5 m/s 748 mmHg 49%
04:00 -5°C° 0 mm 5 m/s 748 mmHg 49%
05:00 -5°C° 0 mm 5 m/s 747 mmHg 48%
06:00 -4°C° 0 mm 5 m/s 746 mmHg 48%
07:00 -4°C° 0 mm 6 m/s 746 mmHg 49%
08:00 -3°C° 0 mm 6 m/s 745 mmHg 49%
09:00 -2°C° 0 mm 7 m/s 744 mmHg 49%
10:00 -1°C° 0 mm 7 m/s 744 mmHg 48%
11:00 0°C° 0 mm 8 m/s 743 mmHg 47%
12:00 0°C° 0.2 mm 8 m/s 742 mmHg 59%
13:00 -1°C° 0.2 mm 8 m/s 741 mmHg 71%
14:00 -1°C° 0.2 mm 9 m/s 741 mmHg 83%
15:00 -1°C° 0.4 mm 8 m/s 740 mmHg 86%
16:00 0°C° 0.4 mm 8 m/s 739 mmHg 89%
17:00 0°C° 0.4 mm 8 m/s 739 mmHg 93%
18:00 0°C° 0.4 mm 8 m/s 738 mmHg 91%
19:00 +1°C° 0.4 mm 8 m/s 737 mmHg 89%
20:00 +1°C° 0.4 mm 8 m/s 737 mmHg 87%
21:00 +2°C° 0.3 mm 8 m/s 737 mmHg 86%
22:00 +2°C° 0.3 mm 8 m/s 736 mmHg 84%
23:00 +3°C° 0.3 mm 9 m/s 736 mmHg 83%

12 Março, Sexta-feira

Tempo Temperatura Precipitação Vento Pressão Humidade
00:00 +2°C° 0.2 mm 8 m/s 736 mmHg 84%
01:00 +3°C° 0.2 mm 7 m/s 736 mmHg 86%
02:00 +3°C° 0.2 mm 6 m/s 736 mmHg 87%
03:00 +2°C° 0 mm 6 m/s 736 mmHg 88%
04:00 +2°C° 0 mm 6 m/s 736 mmHg 89%
05:00 +1°C° 0 mm 5 m/s 736 mmHg 90%
06:00 +1°C° 0 mm 5 m/s 736 mmHg 91%
07:00 +2°C° 0 mm 6 m/s 736 mmHg 91%
08:00 +2°C° 0 mm 6 m/s 736 mmHg 91%
09:00 +3°C° 0 mm 6 m/s 736 mmHg 87%
10:00 +4°C° 0 mm 7 m/s 736 mmHg 82%
11:00 +5°C° 0 mm 7 m/s 736 mmHg 77%
12:00 +4°C° 0.6 mm 7 m/s 735 mmHg 79%
13:00 +4°C° 0.6 mm 7 m/s 735 mmHg 81%
14:00 +3°C° 0.6 mm 6 m/s 735 mmHg 83%
15:00 +4°C° 0 mm 7 m/s 735 mmHg 75%
16:00 +5°C° 0 mm 7 m/s 735 mmHg 67%
17:00 +6°C° 0 mm 7 m/s 735 mmHg 60%
18:00 +5°C° 0 mm 7 m/s 735 mmHg 64%
19:00 +4°C° 0 mm 7 m/s 735 mmHg 68%
20:00 +3°C° 0 mm 6 m/s 736 mmHg 72%
21:00 +3°C° 0 mm 7 m/s 736 mmHg 74%
22:00 +2°C° 0 mm 7 m/s 737 mmHg 75%
23:00 +2°C° 0 mm 7 m/s 737 mmHg 76%
Mostrar mais

Necessitamos do seu Consentimento

A Meteoprog e os seus Fornecedores de Serviços podem armazenar e aceder a dados pessoais como cookies, identificadores do dispositivo ou outras tecnologias semelhantes existentes no seu dispositivo e processar estes dados para personalizar conteúdos e anúncios, assim como funcionalidades nas redes sociais e análise de tráfego.

  • Armazenar e/ou aceder a informações no seu dispositivo

    Os cookies, identificadores do dispositivo ou outras informações podem ser armazenados ou acedidos no seu dispositivo, para os fins acima indicados.

  • Anúncios e conteúdos personalizados, medição de anúncios e conteúdos, dados sobre o público-alvo e desenvolvimento de produtos

    Os anúncios e os conteúdos podem ser personalizados com base num perfil. Podem ser adicionados dados adicionais para uma maior personalização dos anúncios e dos conteúdos. A eficácia dos anúncios e dos conteúdos pode ser medida. Podem ser obtidas informações sobre o público que visualizou os anúncios e os conteúdos. Estes dados podem ser usados para desenvolver ou melhorar sistemas, softwares ou a experiência do utilizador.

Ao clicar em "Eu concordo”, permitirá o uso de cookies, identificadores do dispositivo e web beacons mencionados ou outras tecnologias semelhantes. As configurações do navegador do seu dispositivo podem ser alteradas.

Para certos fins, podem ser invocados interesses legítimos ao invés de consentimento. Pode ler mais informação sobre este assunto na nossa Política de Privacidade e Cookies.